Torna al catalogo

BANGABANDHUSAT-1

AttivoComunicazioniGEO
NORAD 43463·PAYLOAD·🇧🇩 Bangladesh

Lanciato May 11, 2018 da Cape Canaveral Space Force Station

Loading…

TLE

AggiornatoSource: Space-Track

Epoca: Sep 14, 2026, 21:12 UTC

1 43463U 18044A   26257.88386725 -.00000370  00000-0  00000-0 0  9997
2 43463   0.0135 212.8800 0002511 327.4489 250.8229  1.00270750 30607

Traccia BANGABANDHUSAT-1 in tempo reale con AllMySat

Download on the App Store